This demonstration page uses our WeatherBlox Daily Observations layout. Learn more.

Left ArrowRight Arrow

31.31129, -92.44514

Hourly Observations for July 9, 2022

Temp ( °F °C ) Dew Point ( °F °C ) Humidity (%) Winds ( mph kmh ) Pressure ( in mb ) Visibility ( mi km ) Precip ( " mm )
12:53 am 00:53 Clear 85 29.4 76 24.4 75 75 SSW 7 11 30.01 1016 10 16 0.00 0.00
1:53 am 01:53 Clear 84 28.9 75 23.9 74 74 SW 8 13 30.01 1016 10 16 0.00 0.00
2:53 am 02:53 Clear 83 28.3 76 24.4 79 79 WSW 5 7 30.00 1016 10 16 0.00 0.00
3:53 am 03:53 Clear 82 27.8 76 24.4 82 82 SW 5 7 29.99 1016 10 16 0.00 0.00
4:53 am 04:53 Clear 81 27.2 75 23.9 82 82 WSW 3 6 29.99 1016 10 16 0.00 0.00
5:53 am 05:53 Clear 81 27.2 75 23.9 82 82 Calm 30.01 1016 10 16 0.00 0.00
6:53 am 06:53 Sunny 81 27.2 75 23.9 82 82 Calm 30.02 1017 10 16 0.00 0.00
7:53 am 07:53 Mostly Cloudy 83 28.3 76 24.4 79 79 W 5 7 30.04 1017 10 16 0.00 0.00
8:53 am 08:53 Mostly Sunny 87 30.6 73 22.8 63 63 W 9 15 30.05 1018 10 16 0.00 0.00
9:53 am 09:53 Sunny 90 32.2 72 22.2 56 56 W 9 15 30.05 1018 10 16 0.00 0.00
10:53 am 10:53 Mostly Cloudy 92 33.3 74 23.3 56 56 W 9 15 30.06 1018 10 16 0.00 0.00
11:53 am 11:53 Sunny 95 35 73 22.8 49 49 SSW 6 9 30.04 1017 10 16 0.00 0.00
12:53 pm 12:53 Sunny 97 36.1 73 22.8 46 46 W 8 13 30.02 1017 10 16 0.00 0.00
1:53 pm 13:53 Sunny 99 37.2 73 22.8 43 43 W 6 9 30.00 1016 10 16 0.00 0.00
2:53 pm 14:53 Sunny 100 37.8 74 23.3 43 43 S 7 11 29.97 1015 10 16 0.00 0.00
3:51 pm 15:51 Sunny with Nearby Thunderstorms 100 38 72 22 40 40 S 6 9 29.94 1014 10 16 0.00 0.00
3:53 pm 15:53 Sunny with Nearby Thunderstorms 101 38.3 71 21.7 38 38 S 3 6 29.95 1014 10 16 0.00 0.00
4:14 pm 16:14 Sunny 100 37.8 72 22.2 40 40 SW 8 13 29.92 1013 10 16 0.00 0.00
4:53 pm 16:53 Sunny 95 35 73 22.8 49 49 W 8 13 29.93 1014 10 16 0.00 0.00
5:53 pm 17:53 Sunny 100 37.8 72 22.2 40 40 SW 3 6 29.91 1013 10 16 0.00 0.00
6:53 pm 18:53 Sunny 96 35.6 76 24.4 52 52 S 5 7 29.91 1013 10 16 0.00 0.00
7:53 pm 19:53 Sunny 94 34.4 73 22.8 51 51 SSW 8 13 29.92 1013 10 16 0.00 0.00
8:53 pm 20:53 Clear 90 32.2 74 23.3 59 59 S 5 7 29.92 1013 10 16 0.00 0.00
9:53 pm 21:53 Clear 89 31.7 75 23.9 63 63 SSW 6 9 29.92 1013 10 16 0.00 0.00
10:53 pm 22:53 Clear 89 31.7 75 23.9 63 63 SSW 7 11 29.94 1014 10 16 0.00 0.00
11:53 pm 23:53 Clear 87 30.6 75 23.9 67 67 SSW 6 9 29.94 1014 10 16 0.00 0.00

Powered by AerisWeather